"Date","subscriberCount","subscriberChange","viewCount","viewChange","videoCount","videoChange","commentCount","commentChange"
"2021-05-30 00:02:04","22200","0","75795282","0","196","0","","0"
"2021-05-31 00:02:03","22200","0","75894166","98884","196","0","","0"
"2021-06-01 00:02:03","22200","0","76021831","127665","197","1","","0"
"2021-06-02 00:02:02","22300","100","76194587","172756","197","0","","0"
"2021-06-03 00:02:03","22400","100","76327174","132587","197","0","","0"
"2021-06-04 00:02:03","22400","0","76439075","111901","197","0","","0"
"2021-06-05 00:02:03","22400","0","76534782","95707","197","0","","0"
"2021-06-06 00:02:03","22400","0","76606656","71874","197","0","","0"
"2021-06-07 00:02:02","22400","0","76668983","62327","197","0","","0"
"2021-06-08 00:02:03","22400","0","76727772","58789","197","0","","0"
"2021-06-09 00:02:02","22400","0","76752434","24662","197","0","","0"
"2021-06-10 00:02:02","22400","0","76773530","21096","197","0","","0"
"2021-06-11 00:02:03","22400","0","76791045","17515","197","0","","0"
"2021-06-12 00:02:03","22400","0","76810251","19206","197","0","","0"
"2021-06-13 00:02:03","22400","0","76847336","37085","197","0","","0"
"2021-06-14 00:02:02","22400","0","76882659","35323","197","0","","0"
"2021-06-15 00:02:03","22300","-100","76914455","31796","197","0","","0"
"2021-06-16 00:02:03","22300","0","76933004","18549","197","0","","0"
"2021-06-17 00:02:02","22300","0","76951005","18001","197","0","","0"
"2021-06-18 00:02:02","22300","0","76972325","21320","197","0","","0"
"2021-06-19 00:02:03","22300","0","76996219","23894","197","0","","0"
"2021-06-20 00:02:03","22300","0","77016917","20698","197","0","","0"
"2021-06-21 00:02:03","22300","0","77047583","30666","197","0","","0"
"2021-06-22 00:02:03","22300","0","77087570","39987","197","0","","0"
"2021-06-23 00:02:03","22300","0","77118049","30479","197","0","","0"
"2021-06-24 00:02:03","22300","0","77151026","32977","197","0","","0"
"2021-06-25 00:02:03","22200","-100","77187293","36267","197","0","","0"
"2021-06-26 00:02:03","22200","0","77212368","25075","197","0","","0"
"2021-06-27 00:02:03","22200","0","77241594","29226","197","0","","0"
"2021-06-28 00:02:03","22200","0","77292561","50967","197","0","","0"
"2021-06-29 00:02:03","22200","0","77354432","61871","197","0","","0"
"2021-06-30 00:02:03","22200","0","77402750","48318","197","0","","0"
"2021-07-01 00:02:04","22200","0","77496468","93718","197","0","","0"
"2021-07-02 00:02:03","22300","100","77585136","88668","197","0","","0"
"2021-07-03 00:02:04","22300","0","77672418","87282","197","0","","0"
"2021-07-04 00:02:03","22300","0","77777967","105549","197","0","","0"
"2021-07-05 00:02:03","22300","0","77897654","119687","197","0","","0"
"2021-07-06 00:02:04","22300","0","77998655","101001","197","0","","0"
"2021-07-07 00:02:03","22300","0","78102139","103484","197","0","","0"
"2021-07-08 00:02:04","22300","0","78168621","66482","199","2","","0"
"2021-07-09 00:02:04","22300","0","78227234","58613","200","1","","0"
"2021-07-10 00:02:03","22300","0","78281901","54667","202","2","","0"
"2021-07-11 00:02:03","22300","0","78322239","40338","205","3","","0"
"2021-07-12 00:02:02","22200","-100","78370082","47843","208","3","","0"
"2021-07-13 00:02:02","22200","0","78411849","41767","211","3","","0"
"2021-07-14 00:02:03","22200","0","78462870","51021","212","1","","0"
"2021-07-15 00:02:03","22200","0","78509464","46594","214","2","","0"
"2021-07-16 00:02:03","22200","0","78612717","103253","214","0","","0"
"2021-07-17 00:02:02","22300","100","78882439","269722","216","2","","0"
"2021-07-18 00:02:02","","-22300","79605799","723360","217","1","","0"
"2021-07-19 00:02:03","","0","80812701","1206902","218","1","","0"
"2021-07-20 00:02:03","","0","81957423","1144722","219","1","","0"
"2021-07-21 00:02:02","","0","82678736","721313","222","3","","0"
"2021-07-22 00:02:02","","0","83067002","388266","224","2","","0"
"2021-07-23 00:02:02","","0","83438285","371283","222","-2","","0"
"2021-07-24 00:02:02","","0","83989537","551252","224","2","","0"
"2021-07-25 00:02:03","","0","84015248","25711","224","0","","0"
"2021-07-26 00:02:02","","0","84085701","70453","224","0","","0"
"2021-07-27 00:02:02","","0","84165151","79450","225","1","","0"
"2021-07-28 00:02:03","","0","84234325","69174","227","2","","0"
"2021-07-29 00:02:02","","0","84324942","90617","227","0","","0"
"2021-07-30 00:02:02","","0","84457950","133008","228","1","","0"
"2021-07-31 00:02:03","","0","84547640","89690","228","0","","0"
"2021-08-01 00:02:02","","0","84632562","84922","228","0","","0"
"2021-08-02 00:02:02","","0","84715795","83233","229","1","","0"
"2021-08-03 00:02:02","","0","84808207","92412","229","0","","0"
"2021-08-04 00:02:03","","0","84889743","81536","230","1","","0"
"2021-08-05 00:02:02","","0","84943030","53287","230","0","","0"
"2021-08-06 00:02:02","","0","84997357","54327","230","0","","0"
"2021-08-07 00:02:02","","0","85032329","34972","230","0","","0"
"2021-08-08 00:02:02","","0","85094196","61867","231","1","","0"
"2021-08-09 00:02:02","","0","85139539","45343","231","0","","0"
"2021-08-10 00:02:03","","0","85184288","44749","231","0","","0"
"2021-08-11 00:02:03","","0","85184288","0","231","0","","0"
"2021-08-12 00:02:02","","0","85238922","54634","231","0","","0"
"2021-08-13 00:02:02","","0","85262374","23452","231","0","","0"
"2021-08-14 00:02:03","","0","85287822","25448","231","0","","0"
"2021-08-15 00:02:03","","0","85312748","24926","231","0","","0"
"2021-08-16 00:02:03","","0","85340282","27534","231","0","","0"
"2021-08-17 00:02:03","","0","85353618","13336","231","0","","0"
"2021-08-18 00:02:02","","0","85384696","31078","231","0","","0"
"2021-08-19 00:02:02","","0","85403302","18606","231","0","","0"
"2021-08-20 00:02:02","","0","85424181","20879","232","1","","0"
"2021-08-21 00:02:02","","0","85445551","21370","232","0","","0"
"2021-08-22 00:02:07","","0","85468429","22878","233","1","","0"
"2021-08-23 00:02:02","","0","85496999","28570","233","0","","0"
"2021-08-24 00:02:03","","0","85541281","44282","233","0","","0"
"2021-08-25 00:02:02","","0","85585032","43751","233","0","","0"
"2021-08-26 00:02:03","","0","85626495","41463","233","0","","0"
"2021-08-27 00:02:02","","0","85690899","64404","233","0","","0"
"2021-08-28 00:02:03","","0","85738442","47543","233","0","","0"
"2021-08-29 00:02:02","","0","85786962","48520","233","0","","0"
"2021-08-30 00:02:03","","0","85848946","61984","233","0","","0"
"2021-08-31 00:02:02","","0","85880421","31475","233","0","","0"
"2021-09-01 00:02:03","","0","85936047","55626","233","0","","0"
"2021-09-02 00:02:02","","0","85969761","33714","233","0","","0"
"2021-09-03 00:02:03","","0","85999233","29472","233","0","","0"
"2021-09-04 00:02:03","","0","86025449","26216","233","0","","0"
"2021-09-05 00:02:02","","0","86053758","28309","233","0","","0"
"2021-09-06 00:02:02","","0","86085029","31271","233","0","","0"
"2021-09-07 00:02:02","","0","86116868","31839","233","0","","0"
"2021-09-08 00:02:02","","0","86141551","24683","233","0","","0"
"2021-09-09 00:02:03","","0","86165427","23876","233","0","","0"
"2021-09-10 00:02:02","","0","86190957","25530","233","0","","0"
"2021-09-11 00:02:03","","0","86213877","22920","233","0","","0"
"2021-09-12 00:02:02","","0","86240485","26608","233","0","","0"
"2021-09-13 00:02:02","","0","86267251","26766","233","0","","0"
"2021-09-14 00:02:03","","0","86297268","30017","233","0","","0"
"2021-09-15 00:02:02","","0","86318733","21465","233","0","","0"
"2021-09-16 00:02:03","","0","86343736","25003","233","0","","0"
"2021-09-17 00:02:02","","0","86360522","16786","233","0","","0"
"2021-09-18 00:02:03","","0","86377265","16743","233","0","","0"
"2021-09-19 00:02:02","","0","86392089","14824","233","0","","0"
"2021-09-20 00:02:02","","0","86411470","19381","233","0","","0"
"2021-09-21 00:02:02","","0","86432814","21344","233","0","","0"
"2021-09-22 00:02:02","","0","86454179","21365","233","0","","0"
"2021-09-23 00:02:03","","0","86471283","17104","233","0","","0"
"2021-09-24 00:02:03","","0","86489226","17943","233","0","","0"
"2021-09-25 00:02:03","","0","86511348","22122","233","0","","0"
"2021-09-26 00:02:02","","0","86529769","18421","233","0","","0"
"2021-09-27 00:02:02","","0","86529769","0","233","0","","0"
"2021-09-28 00:02:02","","0","86578822","49053","233","0","","0"
"2021-09-29 00:02:04","","0","86586542","7720","233","0","","0"
"2021-09-30 00:02:03","","0","86617499","30957","233","0","","0"
"2021-10-01 00:02:04","","0","86638502","21003","233","0","","0"
"2021-10-02 00:02:03","","0","86657347","18845","233","0","","0"
"2021-10-03 00:02:02","","0","86657347","0","233","0","","0"
"2021-10-04 00:02:02","","0","86701104","43757","233","0","","0"
"2021-10-05 00:02:03","","0","86723709","22605","233","0","","0"
"2021-10-06 00:02:03","","0","86740747","17038","233","0","","0"
"2021-10-07 00:02:02","","0","86755672","14925","233","0","","0"
"2021-10-08 00:02:03","","0","86771408","15736","233","0","","0"
"2021-10-09 00:02:02","","0","86787178","15770","233","0","","0"
"2021-10-10 00:02:02","","0","86801193","14015","233","0","","0"
"2021-10-11 00:02:03","","0","86819369","18176","233","0","","0"
"2021-10-12 00:02:02","","0","86833815","14446","233","0","","0"
"2021-10-13 00:02:02","","0","86857390","23575","233","0","","0"
"2021-10-14 00:02:02","","0","86872127","14737","233","0","","0"
"2021-10-15 00:02:03","","0","86885876","13749","233","0","","0"
"2021-10-16 00:02:02","","0","86899288","13412","233","0","","0"
"2021-10-17 00:02:03","","0","86914780","15492","233","0","","0"
"2021-10-18 00:02:03","","0","86933776","18996","233","0","","0"
"2021-10-19 00:02:02","","0","86945577","11801","233","0","","0"
"2021-10-20 00:02:02","","0","86964238","18661","233","0","","0"
"2021-10-21 00:02:02","","0","86974623","10385","233","0","","0"
"2021-10-22 00:02:02","","0","86986250","11627","233","0","","0"
"2021-10-23 00:02:02","","0","86986250","0","233","0","","0"
"2021-10-24 00:02:03","","0","87022023","35773","233","0","","0"
"2021-10-25 00:02:02","","0","87036098","14075","233","0","","0"
"2021-10-26 00:02:03","","0","87050707","14609","233","0","","0"
"2021-10-27 00:02:02","","0","87060470","9763","233","0","","0"
"2021-10-28 00:02:02","","0","87067392","6922","233","0","","0"
"2021-10-29 00:02:03","","0","87074397","7005","233","0","","0"
"2021-10-30 00:02:02","","0","87082120","7723","233","0","","0"
"2021-10-31 00:02:02","","0","87089355","7235","233","0","","0"
"2021-11-01 00:02:03","","0","87101318","11963","233","0","","0"
"2021-11-02 00:02:03","","0","87115275","13957","233","0","","0"
"2021-11-03 00:02:03","","0","87125179","9904","233","0","","0"
"2021-11-04 00:02:03","","0","87138069","12890","233","0","","0"
"2021-11-05 00:02:02","","0","87151367","13298","233","0","","0"
"2021-11-06 00:02:02","","0","87158888","7521","233","0","","0"
"2021-11-07 00:02:02","","0","87168043","9155","233","0","","0"
"2021-11-08 00:02:02","","0","87174288","6245","233","0","","0"
"2021-11-09 00:02:03","","0","87182055","7767","233","0","","0"
"2021-11-10 00:02:02","","0","87187440","5385","233","0","","0"
"2021-11-11 00:02:02","","0","87191878","4438","233","0","","0"
"2021-11-12 00:02:03","","0","87195884","4006","233","0","","0"
"2021-11-13 00:02:03","","0","87199682","3798","233","0","","0"
"2021-11-14 00:02:02","","0","87203912","4230","233","0","","0"
"2021-11-15 00:02:02","","0","87208868","4956","233","0","","0"
"2021-11-16 00:02:03","","0","87215369","6501","233","0","","0"
"2021-11-17 00:02:03","","0","87219711","4342","233","0","","0"
"2021-11-18 00:02:02","","0","87223393","3682","233","0","","0"
"2021-11-19 00:02:02","","0","87228063","4670","233","0","","0"
"2021-11-20 00:02:03","","0","87232348","4285","233","0","","0"
"2021-11-21 00:02:03","","0","87235553","3205","233","0","","0"
"2021-11-22 00:02:03","","0","87241928","6375","233","0","","0"
"2021-11-23 00:02:02","","0","87247680","5752","233","0","","0"
"2021-11-24 00:02:03","","0","87251139","3459","233","0","","0"
"2021-11-25 00:02:02","","0","87256701","5562","233","0","","0"
"2021-11-26 00:02:02","","0","87260274","3573","233","0","","0"
"2021-11-27 00:02:03","","0","87264325","4051","233","0","","0"
"2021-11-28 00:02:03","","0","87268123","3798","233","0","","0"
"2021-11-29 00:02:02","","0","87272597","4474","233","0","","0"
"2021-11-30 00:02:03","","0","87278160","5563","233","0","","0"
"2021-12-01 00:02:03","","0","87281968","3808","233","0","","0"
"2021-12-02 00:02:02","","0","87285366","3398","233","0","","0"
"2021-12-03 00:02:03","","0","87288829","3463","233","0","","0"
"2021-12-04 00:02:02","","0","87291430","2601","233","0","","0"
"2021-12-05 00:02:02","","0","87294530","3100","233","0","","0"
"2021-12-06 00:02:03","","0","87297930","3400","233","0","","0"
"2021-12-07 00:02:02","","0","87301061","3131","233","0","","0"
"2021-12-08 00:02:02","","0","87303441","2380","233","0","","0"
"2021-12-09 00:02:02","","0","87305903","2462","233","0","","0"
"2021-12-10 00:02:02","","0","87307838","1935","233","0","","0"
"2021-12-11 00:02:03","","0","87310723","2885","233","0","","0"
"2021-12-12 00:02:03","","0","87313300","2577","233","0","","0"
"2021-12-13 00:02:02","","0","87315958","2658","233","0","","0"
"2021-12-14 00:02:03","","0","87318583","2625","233","0","","0"
"2021-12-15 00:02:02","","0","87320962","2379","233","0","","0"
"2021-12-16 00:02:02","","0","87323175","2213","233","0","","0"
"2021-12-17 00:02:02","","0","87324552","1377","233","0","","0"
"2021-12-18 00:02:02","","0","87326410","1858","233","0","","0"
"2021-12-19 00:02:02","","0","87328892","2482","233","0","","0"
"2021-12-20 00:02:02","","0","87331648","2756","233","0","","0"
"2021-12-21 00:02:02","","0","87333540","1892","233","0","","0"
"2021-12-22 00:02:02","","0","87334947","1407","233","0","","0"
"2021-12-23 00:02:03","","0","87336527","1580","233","0","","0"
"2021-12-24 00:02:02","","0","87338249","1722","233","0","","0"
"2021-12-25 00:02:02","","0","87339970","1721","233","0","","0"
"2021-12-26 00:02:01","","0","87341548","1578","233","0","","0"
"2021-12-27 00:02:03","","0","87343164","1616","233","0","","0"
"2021-12-28 00:02:02","","0","87344790","1626","233","0","","0"
"2021-12-29 00:02:03","","0","87347123","2333","233","0","","0"
"2021-12-30 00:02:02","","0","87348856","1733","233","0","","0"
"2021-12-31 00:02:02","","0","87350558","1702","233","0","","0"
"2022-01-01 00:02:03","","0","87352213","1655","233","0","","0"
"2022-01-02 00:02:02","","0","87353888","1675","233","0","","0"
"2022-01-03 00:02:02","","0","87355413","1525","233","0","","0"
"2022-01-04 00:02:02","","0","87357186","1773","233","0","","0"
"2022-01-05 00:02:02","","0","87358930","1744","233","0","","0"
"2022-01-06 00:02:03","","0","87360545","1615","233","0","","0"
"2022-01-07 00:02:03","","0","87362101","1556","233","0","","0"
"2022-01-08 00:02:03","","0","87363919","1818","233","0","","0"
"2022-01-09 00:02:02","","0","87365596","1677","233","0","","0"
"2022-01-10 00:02:02","","0","87367410","1814","233","0","","0"
"2022-01-11 00:02:02","","0","87369406","1996","233","0","","0"
"2022-01-12 00:02:03","","0","87371329","1923","233","0","","0"
"2022-01-13 00:02:02","","0","87372806","1477","233","0","","0"
"2022-01-14 00:02:03","","0","87374415","1609","233","0","","0"
"2022-01-15 00:02:02","","0","87375821","1406","233","0","","0"
"2022-01-16 00:02:02","","0","87377342","1521","233","0","","0"
"2022-01-17 00:02:03","","0","87379622","2280","233","0","","0"
"2022-01-18 00:02:03","","0","87382123","2501","233","0","","0"
"2022-01-19 00:02:02","","0","87383647","1524","233","0","","0"
"2022-01-20 00:02:02","","0","87385078","1431","233","0","","0"
"2022-01-21 00:02:01","","0","87386534","1456","233","0","","0"
"2022-01-22 00:02:02","","0","87388147","1613","233","0","","0"
"2022-01-23 00:02:02","","0","87389729","1582","233","0","","0"
"2022-01-24 00:02:02","","0","87392326","2597","233","0","","0"
"2022-01-25 00:02:02","","0","87394809","2483","233","0","","0"
"2022-01-26 00:02:02","","0","87396451","1642","233","0","","0"
"2022-01-27 00:02:03","","0","87398177","1726","233","0","","0"
"2022-01-28 00:02:02","","0","87400025","1848","233","0","","0"
"2022-01-29 00:02:02","","0","87401925","1900","233","0","","0"
"2022-01-30 00:02:02","","0","87403507","1582","233","0","","0"
"2022-01-31 00:02:02","","0","87405458","1951","233","0","","0"
"2022-02-01 00:02:03","","0","87407890","2432","233","0","","0"
"2022-02-02 00:02:03","","0","87409264","1374","233","0","","0"
"2022-02-03 00:02:02","","0","87410669","1405","233","0","","0"
"2022-02-04 00:02:02","","0","87412205","1536","233","0","","0"
"2022-02-05 00:02:02","","0","87413758","1553","233","0","","0"
"2022-02-06 00:02:02","","0","87415539","1781","233","0","","0"
"2022-02-07 00:02:02","","0","87417491","1952","233","0","","0"
"2022-02-08 00:02:02","","0","87419529","2038","233","0","","0"
"2022-02-09 00:02:02","","0","87420882","1353","233","0","","0"
"2022-02-10 00:02:02","","0","87422245","1363","233","0","","0"
"2022-02-11 00:02:02","","0","87423795","1550","233","0","","0"
"2022-02-12 00:02:02","","0","87426201","2406","233","0","","0"
"2022-02-13 00:02:02","","0","87430041","3840","233","0","","0"
"2022-02-14 00:02:02","","0","87433161","3120","233","0","","0"
"2022-02-15 00:02:02","","0","87436294","3133","233","0","","0"
"2022-02-16 00:02:02","","0","87438518","2224","233","0","","0"
"2022-02-17 00:02:03","","0","87441476","2958","233","0","","0"
"2022-02-18 00:02:02","","0","87444813","3337","233","0","","0"
"2022-02-19 00:02:03","","0","87447732","2919","233","0","","0"
"2022-02-20 00:02:02","","0","87450346","2614","233","0","","0"
"2022-02-21 00:02:03","","0","87453162","2816","233","0","","0"
"2022-02-22 00:02:03","","0","87455955","2793","233","0","","0"
"2022-02-23 00:02:02","","0","87458388","2433","233","0","","0"
"2022-02-24 00:02:02","","0","87460750","2362","233","0","","0"
"2022-02-25 00:02:03","","0","87463558","2808","233","0","","0"
"2022-02-26 00:02:03","","0","87466154","2596","233","0","","0"
"2022-02-27 00:02:03","","0","87468862","2708","233","0","","0"
"2022-02-28 00:02:03","","0","87472028","3166","233","0","","0"
"2022-03-01 00:02:03","","0","87475905","3877","233","0","","0"
"2022-03-02 00:02:03","","0","87477951","2046","233","0","","0"
"2022-03-03 00:02:01","","0","87480434","2483","233","0","","0"
"2022-03-04 00:02:02","","0","87483414","2980","233","0","","0"
"2022-03-05 00:02:03","","0","87486039","2625","233","0","","0"
"2022-03-06 00:02:03","","0","87488653","2614","233","0","","0"
"2022-03-07 00:02:02","","0","87491968","3315","233","0","","0"
"2022-03-08 00:02:03","","0","87494903","2935","233","0","","0"
"2022-03-09 00:02:02","","0","87497246","2343","233","0","","0"
"2022-03-10 00:02:02","","0","87499457","2211","233","0","","0"
"2022-03-11 00:02:02","","0","87501672","2215","233","0","","0"
"2022-03-12 00:02:02","","0","87504071","2399","233","0","","0"
"2022-03-13 00:02:02","","0","87506214","2143","233","0","","0"
"2022-03-14 00:02:02","","0","87508906","2692","233","0","","0"
"2022-03-15 00:02:03","","0","87511452","2546","233","0","","0"
"2022-03-16 00:02:02","","0","87513654","2202","233","0","","0"
"2022-03-17 00:02:02","","0","87515926","2272","233","0","","0"
"2022-03-18 00:02:03","","0","87518130","2204","233","0","","0"
"2022-03-19 00:02:02","","0","87520911","2781","233","0","","0"
"2022-03-20 00:02:02","","0","87523387","2476","233","0","","0"
"2022-03-21 00:02:02","","0","87526719","3332","233","0","","0"
"2022-03-22 00:02:02","","0","87529674","2955","233","0","","0"
"2022-03-23 00:02:02","","0","87532607","2933","233","0","","0"
"2022-03-24 00:02:03","","0","87535262","2655","233","0","","0"
"2022-03-25 00:02:03","","0","87537505","2243","233","0","","0"
"2022-03-26 00:02:03","","0","87539871","2366","233","0","","0"
"2022-03-27 00:02:02","","0","87542341","2470","233","0","","0"
"2022-03-28 00:02:03","","0","87544992","2651","233","0","","0"
"2022-03-29 00:02:02","","0","87547653","2661","233","0","","0"
"2022-03-30 00:02:03","","0","87550774","3121","233","0","","0"
"2022-03-31 00:02:02","","0","87552887","2113","233","0","","0"
"2022-04-01 00:02:03","","0","87556661","3774","233","0","","0"
"2022-04-02 00:02:02","","0","87558935","2274","233","0","","0"
"2022-04-03 00:02:02","","0","87560899","1964","233","0","","0"
"2022-04-04 00:02:03","","0","87563270","2371","233","0","","0"
"2022-04-05 00:02:02","","0","87565697","2427","233","0","","0"
"2022-04-06 00:02:02","","0","87568133","2436","233","0","","0"
"2022-04-07 00:02:03","","0","87570440","2307","233","0","","0"
"2022-04-08 00:02:03","","0","87572946","2506","233","0","","0"
"2022-04-09 00:02:02","","0","87575281","2335","233","0","","0"
"2022-04-10 00:02:02","","0","87577154","1873","233","0","","0"
"2022-04-11 00:02:02","","0","87579933","2779","233","0","","0"
"2022-04-12 00:02:03","","0","87582476","2543","233","0","","0"
"2022-04-13 00:02:02","","0","87584532","2056","233","0","","0"
"2022-04-14 00:02:03","","0","87586532","2000","233","0","","0"
"2022-04-15 00:02:02","","0","87588173","1641","233","0","","0"
"2022-04-16 00:02:03","","0","87589978","1805","233","0","","0"
"2022-04-17 00:02:03","","0","87591730","1752","233","0","","0"
"2022-04-18 00:02:02","","0","87594150","2420","233","0","","0"
"2022-04-19 00:02:02","","0","87596460","2310","233","0","","0"
"2022-04-20 00:02:02","","0","87598235","1775","233","0","","0"
"2022-04-21 00:02:02","","0","87600114","1879","233","0","","0"
"2022-04-22 00:02:02","","0","87602026","1912","233","0","","0"
"2022-04-23 00:02:02","","0","87604010","1984","233","0","","0"
"2022-04-24 00:02:03","","0","87606183","2173","233","0","","0"
"2022-04-25 00:02:03","","0","87609166","2983","233","0","","0"
"2022-04-26 00:02:02","","0","87612029","2863","233","0","","0"
"2022-04-27 00:02:02","","0","87613916","1887","233","0","","0"
"2022-04-28 00:02:02","","0","87616148","2232","233","0","","0"
"2022-04-29 00:02:02","","0","87619355","3207","233","0","","0"
"2022-04-30 00:02:02","","0","87623195","3840","233","0","","0"
"2022-05-01 00:02:02","","0","87629039","5844","233","0","","0"
"2022-05-02 00:02:02","","0","87634398","5359","233","0","","0"
"2022-05-03 00:02:02","","0","87639900","5502","233","0","","0"
"2022-05-04 00:02:02","","0","87644493","4593","233","0","","0"
"2022-05-05 00:02:03","","0","87649788","5295","233","0","","0"
"2022-05-06 00:02:02","","0","87667098","17310","233","0","","0"
"2022-05-07 00:02:03","","0","87673633","6535","233","0","","0"
"2022-05-08 00:02:02","","0","87689934","16301","233","0","","0"
"2022-05-09 00:02:03","","0","87705780","15846","233","0","","0"
"2022-05-10 00:02:02","","0","87720428","14648","233","0","","0"
"2022-05-11 00:02:03","","0","87728425","7997","233","0","","0"
"2022-05-12 00:02:03","","0","87737437","9012","233","0","","0"
"2022-05-13 00:02:14","","0","87747043","9606","233","0","","0"
"2022-05-14 00:02:10","","0","87757616","10573","233","0","","0"
"2022-05-15 00:02:11","","0","87770336","12720","233","0","","0"
"2022-05-16 00:02:12","","0","87776805","6469","233","0","","0"
"2022-05-17 00:02:10","","0","87779159","2354","233","0","","0"
"2022-05-18 00:02:11","","0","87780826","1667","233","0","","0"
"2022-05-19 00:02:11","","0","87782758","1932","233","0","","0"
"2022-05-20 00:02:08","","0","87784659","1901","233","0","","0"
"2022-05-21 00:02:07","","0","87786524","1865","233","0","","0"
"2022-05-22 00:02:07","","0","87788032","1508","233","0","","0"
"2022-05-23 00:02:10","","0","87790348","2316","233","0","","0"
"2022-05-24 00:02:07","","0","87792590","2242","233","0","","0"
"2022-05-25 00:02:07","","0","87794350","1760","233","0","","0"
"2022-05-26 00:02:12","","0","87795964","1614","233","0","","0"
"2022-05-27 00:02:05","","0","87797632","1668","233","0","","0"
"2022-05-28 00:02:07","","0","87799232","1600","233","0","","0"
"2022-05-29 00:02:04","","0","87800972","1740","233","0","","0"
"2022-05-30 00:02:08","","0","87803244","2272","233","0","","0"